Overview Statistics Trail Chart Weather Telemetry Raw packets
 

This is the latest recevied weather packets stored in our database for station/object N9DMT-13. If no packets are shown the sender has not sent any weather packets the latest 10 day(s).

<< 1 2 3 4 5 6 >>
Time Temp. Humidity Pressure Rain* Wind** Luminosity Snow
1777855573 18.33° C 40% 972.6 hPa 0 mm - - -
1777855272 18.33° C 38% 972.6 hPa 0 mm - - -
1777854972 18.89° C 40% 972.5 hPa 0 mm - - -
1777854671 18.89° C 37% 972.6 hPa 0 mm - - -
1777854370 19.44° C 37% 972.7 hPa 0 mm - - -
1777854069 19.44° C 37% 972.4 hPa 0 mm - - -
1777853768 19.44° C 37% 972.4 hPa 0 mm - - -
1777853474 20° C 37% 972.5 hPa 0 mm - - -
1777853165 20.56° C 34% 972.5 hPa 0 mm - - -
1777852864 20.56° C 35% 972.4 hPa 0 mm - - -
1777852564 21.11° C 33% 972.2 hPa 0 mm - - -
1777852263 21.11° C 34% 972.2 hPa 0 mm - - -
1777851962 21.11° C 34% 972.3 hPa 0 mm - - -
1777851661 21.11° C 34% 972.2 hPa 0 mm - - -
1777851361 21.67° C 32% 972.3 hPa 0 mm - - -
1777851060 21.67° C 32% 972.1 hPa 0 mm - - -
1777850759 21.67° C 31% 972 hPa 0 mm - - -
1777850459 22.22° C 32% 971.9 hPa 0 mm - - -
1777850158 22.78° C 32% 972 hPa 0 mm - - -
1777849857 23.33° C 31% 972.1 hPa 0 mm - - -
1777849556 23.33° C 31% 972 hPa 0 mm - - -
1777849256 23.33° C 30% 971.8 hPa 0 mm - - -
1777848955 23.33° C 30% 971.8 hPa 0 mm - - -
1777848654 22.78° C 31% 971.8 hPa 0 mm - - -
1777848353 23.33° C 31% 971.8 hPa 0 mm - - -

* Rain latest hour (hover to see other rain measurements)
** Current wind speed in m/s (hover to see current wind gust speed)